When you browse on this site, cookies collect data to enhance your experience and personalize the content and advertising you see.
Visit our Privacy Policy to learn more. By continuing to use the site, you agree to this use of cookies and data.
  • En España
  • Lista de países
  • Para 7 días
  • Temperatura del agua
  • Mapa Satelital
  • El tiempo en el mapa
  • Informadores
  • user-avatar
    Iniciar sesión

    Tiempo cada hora Burajda

    Hoy, 21 Mayo, Martes

    Tiempo Temperatura Precipitaciones Viento Presión Humedad
    00:00 +34°C° 0 mm 1 mps 705 mmHg 16%
    01:00 +34°C° 0 mm 1 mps 704 mmHg 17%
    02:00 +34°C° 0 mm 2 mps 704 mmHg 18%
    03:00 +33°C° 0 mm 3 mps 704 mmHg 20%
    04:00 +32°C° 0 mm 2 mps 705 mmHg 21%
    05:00 +31°C° 0 mm 1 mps 705 mmHg 22%
    06:00 +29°C° 0 mm 0 mps 705 mmHg 23%
    07:00 +33°C° 0 mm 1 mps 706 mmHg 21%
    08:00 +34°C° 0 mm 1 mps 706 mmHg 18%
    09:00 +36°C° 0 mm 1 mps 706 mmHg 15%
    10:00 +36°C° 0 mm 1 mps 706 mmHg 13%
    11:00 +37°C° 0 mm 1 mps 706 mmHg 12%
    12:00 +39°C° 0 mm 1 mps 706 mmHg 10%
    13:00 +39°C° 0 mm 1 mps 706 mmHg 9%
    14:00 +40°C° 0 mm 1 mps 706 mmHg 9%
    15:00 +40°C° 0 mm 1 mps 706 mmHg 9%
    16:00 +40°C° 0 mm 1 mps 706 mmHg 9%
    17:00 +40°C° 0 mm 2 mps 706 mmHg 9%
    18:00 +40°C° 0 mm 2 mps 706 mmHg 9%
    19:00 +39°C° 0.1 mm 2 mps 706 mmHg 10%
    20:00 +39°C° 0.1 mm 2 mps 706 mmHg 10%
    21:00 +38°C° 0.1 mm 2 mps 706 mmHg 11%
    22:00 +37°C° 0 mm 2 mps 706 mmHg 13%
    23:00 +36°C° 0 mm 2 mps 706 mmHg 14%

    Mañana, 22 Mayo, Miércoles

    Tiempo Temperatura Precipitaciones Viento Presión Humedad
    00:00 +36°C° 0 mm 2 mps 707 mmHg 15%
    01:00 +35°C° 0 mm 3 mps 707 mmHg 16%
    02:00 +35°C° 0 mm 4 mps 707 mmHg 17%
    03:00 +35°C° 0 mm 4 mps 707 mmHg 18%
    04:00 +34°C° 0 mm 5 mps 707 mmHg 18%
    05:00 +33°C° 0 mm 6 mps 707 mmHg 18%
    06:00 +32°C° 0 mm 7 mps 707 mmHg 18%
    07:00 +34°C° 0 mm 7 mps 707 mmHg 17%
    08:00 +35°C° 0 mm 7 mps 708 mmHg 16%
    09:00 +36°C° 0 mm 7 mps 708 mmHg 15%
    10:00 +38°C° 0 mm 6 mps 708 mmHg 14%
    11:00 +39°C° 0 mm 5 mps 708 mmHg 13%
    12:00 +40°C° 0 mm 4 mps 708 mmHg 12%
    13:00 +40°C° 0 mm 3 mps 708 mmHg 11%
    14:00 +40°C° 0 mm 3 mps 707 mmHg 11%
    15:00 +40°C° 0 mm 3 mps 707 mmHg 10%
    16:00 +40°C° 0 mm 3 mps 707 mmHg 10%
    17:00 +41°C° 0 mm 4 mps 707 mmHg 10%
    18:00 +41°C° 0 mm 5 mps 706 mmHg 9%
    19:00 +40°C° 0 mm 4 mps 706 mmHg 10%
    20:00 +38°C° 0 mm 4 mps 707 mmHg 10%
    21:00 +37°C° 0 mm 4 mps 707 mmHg 11%
    22:00 +37°C° 0 mm 3 mps 707 mmHg 11%
    23:00 +36°C° 0 mm 3 mps 707 mmHg 12%

    Pasado mañana, 23 Mayo, Jueves

    Tiempo Temperatura Precipitaciones Viento Presión Humedad
    00:00 +35°C° 0 mm 2 mps 707 mmHg 12%
    01:00 +34°C° 0 mm 2 mps 706 mmHg 13%
    02:00 +33°C° 0 mm 1 mps 706 mmHg 13%
    03:00 +32°C° 0 mm 1 mps 706 mmHg 14%
    04:00 +32°C° 0 mm 2 mps 706 mmHg 14%
    05:00 +33°C° 0 mm 3 mps 706 mmHg 14%
    06:00 +33°C° 0 mm 4 mps 706 mmHg 14%
    07:00 +35°C° 0 mm 4 mps 707 mmHg 13%
    08:00 +36°C° 0 mm 4 mps 707 mmHg 12%
    09:00 +39°C° 0 mm 5 mps 708 mmHg 11%
    10:00 +40°C° 0 mm 5 mps 708 mmHg 10%
    11:00 +41°C° 0 mm 5 mps 708 mmHg 9%
    12:00 +41°C° 0 mm 5 mps 707 mmHg 8%
    13:00 +42°C° 0 mm 5 mps 707 mmHg 8%
    14:00 +42°C° 0 mm 5 mps 706 mmHg 8%
    15:00 +42°C° 0 mm 5 mps 706 mmHg 7%
    16:00 +42°C° 0 mm 5 mps 706 mmHg 8%
    17:00 +42°C° 0 mm 5 mps 705 mmHg 8%
    18:00 +41°C° 0 mm 5 mps 705 mmHg 8%
    19:00 +41°C° 0 mm 4 mps 706 mmHg 9%
    20:00 +39°C° 0 mm 3 mps 706 mmHg 10%
    21:00 +38°C° 0 mm 3 mps 707 mmHg 10%
    22:00 +37°C° 0 mm 3 mps 706 mmHg 11%
    23:00 +36°C° 0 mm 3 mps 706 mmHg 12%

    24 Mayo, Viernes

    Tiempo Temperatura Precipitaciones Viento Presión Humedad
    00:00 +35°C° 0 mm 3 mps 706 mmHg 13%
    01:00 +35°C° 0 mm 3 mps 706 mmHg 14%
    02:00 +34°C° 0 mm 3 mps 706 mmHg 15%
    03:00 +33°C° 0 mm 3 mps 706 mmHg 17%
    04:00 +33°C° 0 mm 3 mps 706 mmHg 17%
    05:00 +31°C° 0 mm 3 mps 706 mmHg 18%
    06:00 +31°C° 0 mm 3 mps 706 mmHg 19%
    07:00 +34°C° 0 mm 3 mps 707 mmHg 17%
    08:00 +35°C° 0 mm 4 mps 707 mmHg 16%
    09:00 +37°C° 0 mm 5 mps 708 mmHg 14%
    10:00 +37°C° 0 mm 4 mps 708 mmHg 13%
    11:00 +38°C° 0 mm 4 mps 708 mmHg 12%
    12:00 +39°C° 0 mm 3 mps 708 mmHg 11%
    13:00 +40°C° 0 mm 3 mps 707 mmHg 11%
    14:00 +40°C° 0 mm 3 mps 707 mmHg 10%
    15:00 +42°C° 0 mm 4 mps 706 mmHg 9%
    16:00 +41°C° 0 mm 4 mps 706 mmHg 9%
    17:00 +41°C° 0 mm 4 mps 706 mmHg 10%
    18:00 +41°C° 0 mm 4 mps 706 mmHg 10%
    19:00 +39°C° 0 mm 3 mps 706 mmHg 10%
    20:00 +39°C° 0 mm 3 mps 707 mmHg 11%
    21:00 +38°C° 0 mm 2 mps 707 mmHg 12%
    22:00 +37°C° 0 mm 2 mps 707 mmHg 12%
    23:00 +36°C° 0 mm 2 mps 707 mmHg 13%

    25 Mayo, Sábado

    Tiempo Temperatura Precipitaciones Viento Presión Humedad
    00:00 +35°C° 0 mm 1 mps 707 mmHg 14%
    01:00 +34°C° 0 mm 1 mps 706 mmHg 14%
    02:00 +33°C° 0 mm 1 mps 706 mmHg 15%
    03:00 +33°C° 0 mm 1 mps 706 mmHg 15%
    04:00 +33°C° 0 mm 1 mps 706 mmHg 15%
    05:00 +34°C° 0 mm 2 mps 706 mmHg 15%
    06:00 +32°C° 0 mm 2 mps 706 mmHg 15%
    07:00 +35°C° 0 mm 3 mps 707 mmHg 13%
    08:00 +37°C° 0 mm 3 mps 708 mmHg 12%
    09:00 +40°C° 0 mm 4 mps 708 mmHg 10%
    10:00 +41°C° 0 mm 4 mps 708 mmHg 9%
    11:00 +42°C° 0 mm 4 mps 708 mmHg 8%
    12:00 +42°C° 0 mm 3 mps 707 mmHg 8%
    13:00 +43°C° 0 mm 4 mps 707 mmHg 7%
    14:00 +43°C° 0 mm 4 mps 706 mmHg 7%
    15:00 +43°C° 0 mm 4 mps 706 mmHg 6%
    16:00 +43°C° 0 mm 4 mps 706 mmHg 6%
    17:00 +43°C° 0 mm 4 mps 705 mmHg 6%
    18:00 +43°C° 0 mm 4 mps 705 mmHg 6%
    19:00 +42°C° 0 mm 3 mps 705 mmHg 6%
    20:00 +40°C° 0 mm 2 mps 706 mmHg 7%
    21:00 +37°C° 0 mm 1 mps 706 mmHg 8%
    22:00 +37°C° 0 mm 1 mps 705 mmHg 8%
    23:00 +36°C° 0 mm 1 mps 705 mmHg 9%

    26 Mayo, Domingo

    Tiempo Temperatura Precipitaciones Viento Presión Humedad
    00:00 +35°C° 0 mm 1 mps 705 mmHg 9%
    01:00 +35°C° 0 mm 1 mps 704 mmHg 10%
    02:00 +35°C° 0 mm 2 mps 704 mmHg 10%
    03:00 +34°C° 0 mm 2 mps 704 mmHg 10%
    04:00 +34°C° 0 mm 2 mps 704 mmHg 11%
    05:00 +33°C° 0 mm 1 mps 704 mmHg 11%
    06:00 +33°C° 0 mm 1 mps 704 mmHg 12%
    07:00 +34°C° 0 mm 1 mps 705 mmHg 11%
    08:00 +36°C° 0 mm 1 mps 705 mmHg 9%
    09:00 +39°C° 0 mm 1 mps 706 mmHg 8%
    10:00 +40°C° 0 mm 2 mps 706 mmHg 7%
    11:00 +41°C° 0 mm 2 mps 706 mmHg 7%
    12:00 +42°C° 0 mm 2 mps 705 mmHg 6%
    13:00 +43°C° 0 mm 2 mps 705 mmHg 5%
    14:00 +44°C° 0 mm 3 mps 704 mmHg 5%
    15:00 +45°C° 0 mm 3 mps 704 mmHg 5%
    16:00 +44°C° 0 mm 3 mps 704 mmHg 5%
    17:00 +44°C° 0 mm 3 mps 704 mmHg 5%
    18:00 +44°C° 0 mm 3 mps 704 mmHg 5%
    19:00 +43°C° 0 mm 3 mps 704 mmHg 6%
    20:00 +41°C° 0 mm 2 mps 704 mmHg 6%
    21:00 +40°C° 0 mm 2 mps 704 mmHg 7%
    22:00 +39°C° 0 mm 2 mps 704 mmHg 8%
    23:00 +37°C° 0 mm 1 mps 704 mmHg 8%
    Mostrar más